Volver al catálogo

HULIANWANG DIGUI-05

ActivoComunicacionesPO
NORAD 62327·PAYLOAD·🇨🇳 China

Lanzado Dec 16, 2024 desde Wenchang Space Launch Site

Loading…

Próximos Pases (próximas 24 horas)

TLE

ActualizadoSource: Space-Track

Época: Sep 14, 2026, 21:04 UTC

1 62327U 24240E   26257.87800845  .00000055  00000-0  93798-4 0  9994
2 62327  86.5039 313.2479 0001526  90.5521 269.5788 13.24413706 84512

Sigue HULIANWANG DIGUI-05 en tiempo real con AllMySat

Download on the App Store